Location: Gleizolles
(44.4833°N, 6.7667°E)
Time: 22:18:33
(UTC+00:00)

Tiros 1 despin weight - Pass Details

Date: 02 July 2024
Orbit: 576 x 620 km, 48.2° (Epoch: 19 July)

Event Time Altitude Azimuth Distance (km) Brightness Sun altitude
Rises 07:54:37 0° 230° (SW) 2,846 ? 40.1°
Reaches altitude 10° 07:56:56 10° 226° (SW) 1,952 ? 40.5°
Maximum altitude 08:01:18 53° 149° (SSE) 752 ? 41.3°
Drops below altitude 10° 08:05:45 10° 73° (ENE) 1,981 ? 42.1°
Sets 08:08:06 0° 69° (ENE) 2,893 ? 42.5°
